| time (UTC) | temp F | wind direction | speed knots | gust knots | rain 1hr in | rain 24hr in | rain mn in | humidity % | barometer mb |
| 20260508192353 | 79 | 243 | 0.9 | 0.9 | 0.00 | 0.01 | 0.01 | 64 | 1011.9 |
| 20260508191850 | 78 | 167 | 1.7 | 1.7 | 0.00 | 0.01 | 0.01 | 64 | 1011.9 |
| 20260508191348 | 79 | 173 | 3.5 | 6.1 | 0.00 | 0.01 | 0.01 | 65 | 1012.2 |
| 20260508190844 | 78 | 175 | 2.6 | 2.6 | 0.00 | 0.01 | 0.01 | 65 | 1012.3 |
| 20260508190341 | 78 | 171 | 1.7 | 2.6 | 0.00 | 0.01 | 0.01 | 64 | 1012.2 |
| 20260508185837 | 79 | 271 | 2.6 | 2.6 | 0.00 | 0.01 | 0.01 | 64 | 1012.4 |
| 20260508185335 | 79 | 196 | 0.9 | 1.7 | 0.00 | 0.01 | 0.01 | 63 | 1012.6 |
| 20260508184832 | 79 | 175 | 0.0 | 0.9 | 0.00 | 0.01 | 0.01 | 64 | 1012.4 |
| 20260508184329 | 78 | 229 | 1.7 | 1.7 | 0.00 | 0.01 | 0.01 | 63 | 1012.5 |
| 20260508183826 | 79 | 214 | 2.6 | 2.6 | 0.00 | 0.01 | 0.01 | 62 | 1012.4 |
| 20260508183323 | 79 | 229 | 1.7 | 1.7 | 0.00 | 0.01 | 0.01 | 62 | 1012.6 |
| 20260508182818 | 78 | 153 | 4.3 | 6.1 | 0.00 | 0.01 | 0.01 | 64 | 1012.9 |
| 20260508182315 | 78 | 162 | 0.9 | 0.9 | 0.00 | 0.01 | 0.01 | 64 | 1012.7 |
| 20260508181811 | 78 | 200 | 1.7 | 1.7 | 0.00 | 0.01 | 0.01 | 63 | 1013.0 |
| 20260508181308 | 78 | 208 | 2.6 | 2.6 | 0.00 | 0.01 | 0.01 | 62 | 1012.9 |
| 20260508180805 | 78 | 183 | 0.9 | 1.7 | 0.00 | 0.01 | 0.01 | 62 | 1013.0 |
| 20260508180302 | 78 | 178 | 2.6 | 4.3 | 0.00 | 0.01 | 0.01 | 62 | 1013.1 |
| 20260508175758 | 79 | 237 | 0.9 | 1.7 | 0.00 | 0.01 | 0.01 | 61 | 1013.1 |
| 20260508175255 | 77 | 112 | 0.9 | 1.7 | 0.00 | 0.01 | 0.01 | 63 | 1013.4 |
| 20260508174753 | 78 | 178 | 2.6 | 2.6 | 0.00 | 0.01 | 0.01 | 63 | 1013.5 |
| 20260508174250 | 78 | 190 | 2.6 | 2.6 | 0.00 | 0.01 | 0.01 | 60 | 1013.5 |
| 20260508173746 | 78 | 184 | 0.0 | 0.9 | 0.00 | 0.01 | 0.01 | 64 | 1013.5 |
| 20260508173242 | 77 | 157 | 1.7 | 2.6 | 0.00 | 0.01 | 0.01 | 63 | 1013.4 |
| 20260508172739 | 77 | 206 | 0.9 | 0.9 | 0.00 | 0.01 | 0.01 | 64 | 1013.6 |
| 20260508172236 | 76 | 276 | 3.5 | 4.3 | 0.00 | 0.01 | 0.01 | 62 | 1013.8 |
| 20260508171732 | 77 | 213 | 1.7 | 2.6 | 0.00 | 0.01 | 0.01 | 62 | 1013.9 |
| 20260508171228 | 75 | 140 | 0.9 | 0.9 | 0.00 | 0.01 | 0.01 | 64 | 1013.9 |
| 20260508170726 | 74 | 213 | 2.6 | 2.6 | 0.00 | 0.01 | 0.01 | 65 | 1014.5 |
| 20260508170223 | 75 | 184 | 0.9 | 2.6 | 0.00 | 0.01 | 0.01 | 66 | 1014.6 |
| 20260508165720 | 74 | 207 | 2.6 | 5.2 | 0.00 | 0.01 | 0.01 | 65 | 1014.6 |
| 20260508165218 | 74 | 183 | 0.0 | 0.9 | 0.00 | 0.01 | 0.01 | 65 | 1014.9 |
| 20260508164714 | 74 | 104 | 3.5 | 4.3 | 0.00 | 0.01 | 0.01 | 65 | 1014.9 |
| 20260508164210 | 73 | 148 | 0.9 | 1.7 | 0.00 | 0.01 | 0.01 | 67 | 1014.9 |
| 20260508163709 | 73 | 201 | 4.3 | 5.2 | 0.00 | 0.01 | 0.01 | 66 | 1015.1 |
| 20260508163206 | 73 | 214 | 4.3 | 6.1 | 0.00 | 0.01 | 0.01 | 66 | 1015.2 |
| 20260508162701 | 73 | 181 | 0.0 | 0.9 | 0.00 | 0.01 | 0.01 | 66 | 1015.0 |
| 20260508162158 | 73 | 203 | 1.7 | 1.7 | 0.00 | 0.01 | 0.01 | 66 | 1015.0 |
| 20260508161655 | 73 | 209 | 2.6 | 2.6 | 0.00 | 0.01 | 0.01 | 66 | 1015.2 |
| 20260508161153 | 73 | 190 | 2.6 | 2.6 | 0.00 | 0.01 | 0.01 | 66 | 1015.2 |
| 20260508160651 | 72 | 192 | 1.7 | 2.6 | 0.00 | 0.01 | 0.01 | 67 | 1015.4 |
| 20260508160149 | 72 | 190 | 2.6 | 4.3 | 0.00 | 0.01 | 0.01 | 68 | 1015.4 |
| 20260508155645 | 72 | 169 | 4.3 | 6.1 | 0.00 | 0.01 | 0.01 | 67 | 1015.3 |
| 20260508155142 | 72 | 185 | 2.6 | 4.3 | 0.00 | 0.01 | 0.01 | 68 | 1015.8 |
| 20260508154639 | 71 | 202 | 1.7 | 2.6 | 0.00 | 0.01 | 0.01 | 68 | 1015.6 |
| 20260508154136 | 70 | 196 | 0.9 | 0.9 | 0.00 | 0.01 | 0.01 | 69 | 1015.5 |
| 20260508153632 | 71 | 158 | 1.7 | 1.7 | 0.00 | 0.01 | 0.01 | 68 | 1015.7 |
| 20260508153130 | 69 | 202 | 3.5 | 4.3 | 0.00 | 0.01 | 0.01 | 70 | 1015.7 |
| 20260508152626 | 68 | 138 | 2.6 | 2.6 | 0.00 | 0.01 | 0.01 | 71 | 1015.7 |
| 20260508152121 | 68 | 196 | 2.6 | 2.6 | 0.00 | 0.01 | 0.01 | 72 | 1016.0 |
| 20260508151619 | 68 | 201 | 1.7 | 1.7 | 0.00 | 0.01 | 0.01 | 72 | 1016.0 |
| 20260508151115 | 68 | 184 | 1.7 | 1.7 | 0.00 | 0.01 | 0.01 | 72 | 1016.0 |
| 20260508150612 | 68 | 197 | 1.7 | 2.6 | 0.00 | 0.01 | 0.01 | 72 | 1016.0 |
| 20260508150109 | 68 | 197 | 2.6 | 2.6 | 0.00 | 0.01 | 0.01 | 70 | 1015.8 |
| 20260508145605 | 68 | 170 | 2.6 | 2.6 | 0.00 | 0.01 | 0.01 | 71 | 1015.6 |
| 20260508145102 | 68 | 195 | 0.9 | 0.9 | 0.00 | 0.01 | 0.01 | 71 | 1015.6 |
| 20260508144559 | 69 | 151 | 0.9 | 0.9 | 0.00 | 0.01 | 0.01 | 71 | 1015.4 |
| 20260508144051 | 68 | 173 | 1.7 | 1.7 | 0.00 | 0.01 | 0.01 | 71 | 1015.9 |
| 20260508143548 | 68 | 110 | 1.7 | 1.7 | 0.00 | 0.01 | 0.01 | 72 | 1015.9 |
| 20260508143045 | 68 | 194 | 0.9 | 0.9 | 0.00 | 0.01 | 0.01 | 73 | 1015.9 |
| 20260508142542 | 68 | 150 | 2.6 | 2.6 | 0.00 | 0.01 | 0.01 | 73 | 1016.1 |
| 20260508142038 | 67 | 140 | 2.6 | 2.6 | 0.00 | 0.01 | 0.01 | 72 | 1016.0 |
| 20260508141534 | 68 | 113 | 1.7 | 1.7 | 0.00 | 0.01 | 0.01 | 73 | 1016.1 |
| 20260508141032 | 68 | 109 | 1.7 | 2.6 | 0.00 | 0.01 | 0.01 | 71 | 1016.2 |
| 20260508140529 | 68 | 191 | 3.5 | 4.3 | 0.00 | 0.01 | 0.01 | 72 | 1016.3 |
| 20260508140026 | 67 | 114 | 1.7 | 1.7 | 0.00 | 0.01 | 0.01 | 74 | 1016.1 |
| 20260508135521 | 66 | 148 | 0.9 | 1.7 | 0.00 | 0.01 | 0.01 | 77 | 1016.2 |
| 20260508135018 | 66 | 186 | 0.0 | 0.9 | 0.00 | 0.01 | 0.01 | 79 | 1016.0 |
| 20260508134515 | 65 | 162 | 1.7 | 2.6 | 0.00 | 0.01 | 0.01 | 80 | 1015.9 |
| 20260508134012 | 65 | 152 | 0.0 | 0.9 | 0.00 | 0.01 | 0.01 | 82 | 1016.2 |
| 20260508133509 | 64 | 157 | 0.0 | 0.0 | 0.00 | 0.01 | 0.01 | 84 | 1015.8 |
| 20260508133006 | 64 | 170 | 0.9 | 0.9 | 0.00 | 0.01 | 0.01 | 85 | 1016.0 |
| 20260508132504 | 64 | 140 | 1.7 | 2.6 | 0.00 | 0.01 | 0.01 | 86 | 1016.1 |
| 20260508132000 | 64 | 162 | 0.9 | 0.9 | 0.00 | 0.01 | 0.01 | 86 | 1016.3 |
| 20260508131455 | 63 | 180 | 0.0 | 0.9 | 0.00 | 0.01 | 0.01 | 86 | 1016.4 |
| 20260508130952 | 63 | 176 | 0.0 | 0.9 | 0.00 | 0.01 | 0.01 | 86 | 1016.4 |
| 20260508130450 | 63 | 177 | 0.0 | 0.9 | 0.00 | 0.01 | 0.01 | 86 | 1016.2 |
| 20260508125945 | 63 | 164 | 0.9 | 0.9 | 0.00 | 0.01 | 0.01 | 86 | 1016.2 |
| 20260508125441 | 62 | 189 | 0.0 | 0.9 | 0.00 | 0.01 | 0.01 | 87 | 1016.4 |
| 20260508124939 | 62 | 189 | 0.0 | 0.0 | 0.00 | 0.01 | 0.01 | 88 | 1016.2 |
| 20260508124437 | 62 | 188 | 0.0 | 0.0 | 0.00 | 0.01 | 0.01 | 89 | 1016.2 |
| 20260508123934 | 62 | 189 | 0.0 | 0.0 | 0.00 | 0.01 | 0.01 | 89 | 1016.5 |
| 20260508123433 | 61 | 189 | 0.0 | 0.0 | 0.00 | 0.01 | 0.01 | 90 | 1016.5 |
| 20260508122929 | 61 | 189 | 0.0 | 0.0 | 0.00 | 0.01 | 0.01 | 91 | 1016.6 |
| 20260508122426 | 61 | 189 | 0.0 | 0.0 | 0.00 | 0.01 | 0.01 | 91 | 1016.3 |
| 20260508121923 | 61 | 189 | 0.0 | 0.0 | 0.00 | 0.01 | 0.01 | 91 | 1016.3 |
| 20260508121421 | 61 | 189 | 0.0 | 0.0 | 0.00 | 0.01 | 0.01 | 91 | 1016.4 |
| 20260508120918 | 61 | 189 | 0.0 | 0.0 | 0.00 | 0.01 | 0.01 | 92 | 1016.2 |
| 20260508120416 | 61 | 189 | 0.0 | 0.0 | 0.00 | 0.01 | 0.01 | 92 | 1016.4 |
| 20260508115913 | 61 | 186 | 0.0 | 0.0 | 0.00 | 0.01 | 0.01 | 92 | 1016.5 |
| 20260508115412 | 61 | 183 | 0.0 | 0.0 | 0.00 | 0.01 | 0.01 | 92 | 1016.3 |
| 20260508114907 | 61 | 183 | 0.0 | 0.0 | 0.00 | 0.01 | 0.01 | 92 | 1016.2 |
| 20260508114404 | 61 | 183 | 0.0 | 0.0 | 0.00 | 0.01 | 0.01 | 93 | 1016.3 |
| 20260508113901 | 61 | 183 | 0.0 | 0.0 | 0.00 | 0.01 | 0.01 | 93 | 1016.5 |
| 20260508113359 | 61 | 183 | 0.0 | 0.0 | 0.00 | 0.01 | 0.01 | 93 | 1016.4 |
| 20260508112856 | 61 | 177 | 0.9 | 0.9 | 0.00 | 0.01 | 0.01 | 93 | 1016.5 |
| 20260508112353 | 61 | 185 | 0.9 | 1.7 | 0.00 | 0.01 | 0.01 | 93 | 1016.4 |
| 20260508111849 | 61 | 187 | 1.7 | 1.7 | 0.00 | 0.01 | 0.01 | 93 | 1016.4 |
| 20260508111346 | 61 | 196 | 0.9 | 1.7 | 0.00 | 0.01 | 0.01 | 93 | 1016.7 |
| 20260508110843 | 60 | 200 | 0.9 | 1.7 | 0.00 | 0.01 | 0.01 | 93 | 1016.7 |
| 20260508110341 | 60 | 245 | 0.0 | 0.0 | 0.00 | 0.01 | 0.01 | 94 | 1017.0 |
| 20260508105840 | 61 | 271 | 0.0 | 0.0 | 0.00 | 0.01 | 0.01 | 94 | 1017.1 |
| 20260508105337 | 60 | 275 | 0.9 | 1.7 | 0.00 | 0.01 | 0.01 | 94 | 1017.0 |
| 20260508104834 | 60 | 218 | 0.0 | 0.0 | 0.00 | 0.01 | 0.01 | 94 | 1016.6 |
| 20260508104331 | 60 | 193 | 0.0 | 0.0 | 0.00 | 0.01 | 0.01 | 94 | 1016.3 |
| 20260508103829 | 60 | 192 | 0.0 | 0.0 | 0.00 | 0.01 | 0.01 | 93 | 1015.9 |
| 20260508103325 | 60 | 192 | 0.0 | 0.0 | 0.00 | 0.01 | 0.01 | 93 | 1015.8 |
| 20260508102823 | 60 | 192 | 0.0 | 0.0 | 0.00 | 0.01 | 0.01 | 93 | 1015.6 |
| 20260508102321 | 60 | 192 | 0.0 | 0.0 | 0.00 | 0.01 | 0.01 | 93 | 1015.5 |
| 20260508101818 | 60 | 192 | 0.0 | 0.0 | 0.00 | 0.01 | 0.01 | 93 | 1015.5 |
| 20260508101315 | 60 | 192 | 0.0 | 0.0 | 0.00 | 0.01 | 0.01 | 93 | 1015.5 |
| 20260508100813 | 60 | 191 | 0.0 | 0.0 | 0.00 | 0.01 | 0.01 | 93 | 1015.5 |
| 20260508100311 | 60 | 191 | 0.0 | 0.0 | 0.00 | 0.01 | 0.01 | 94 | 1015.5 |
| 20260508095806 | 60 | 192 | 0.0 | 0.0 | 0.00 | 0.01 | 0.01 | 94 | 1015.5 |
| 20260508095306 | 61 | 192 | 0.0 | 0.0 | 0.00 | 0.01 | 0.01 | 94 | 1015.4 |
| 20260508094801 | 60 | 192 | 0.0 | 0.0 | 0.00 | 0.01 | 0.01 | 94 | 1015.5 |
| 20260508094258 | 60 | 192 | 0.0 | 0.0 | 0.00 | 0.01 | 0.01 | 93 | 1015.6 |
| 20260508093755 | 61 | 192 | 0.0 | 0.0 | 0.00 | 0.01 | 0.01 | 93 | 1015.6 |
| 20260508093253 | 61 | 192 | 0.0 | 0.0 | 0.00 | 0.01 | 0.01 | 93 | 1015.9 |
| 20260508092749 | 61 | 192 | 0.0 | 0.0 | 0.00 | 0.01 | 0.01 | 93 | 1015.9 |
| 20260508092248 | 61 | 191 | 0.0 | 0.0 | 0.00 | 0.01 | 0.01 | 93 | 1015.6 |
| 20260508091745 | 61 | 191 | 0.0 | 0.0 | 0.00 | 0.01 | 0.01 | 93 | 1015.7 |
| 20260508091242 | 61 | 190 | 0.0 | 0.0 | 0.00 | 0.01 | 0.01 | 93 | 1015.7 |
| 20260508090740 | 61 | 190 | 0.0 | 0.0 | 0.00 | 0.01 | 0.01 | 92 | 1015.6 |
| 20260508090237 | 61 | 193 | 0.0 | 0.9 | 0.00 | 0.01 | 0.01 | 92 | 1015.8 |
| 20260508085733 | 61 | 193 | 0.0 | 0.0 | 0.00 | 0.01 | 0.01 | 92 | 1015.9 |
| 20260508085230 | 61 | 192 | 0.0 | 0.9 | 0.00 | 0.01 | 0.01 | 92 | 1015.6 |
| 20260508084726 | 61 | 184 | 0.0 | 0.0 | 0.00 | 0.01 | 0.01 | 92 | 1015.7 |
| 20260508084224 | 61 | 175 | 0.0 | 0.0 | 0.00 | 0.01 | 0.01 | 92 | 1015.7 |
| 20260508083721 | 61 | 145 | 2.6 | 4.3 | 0.00 | 0.01 | 0.01 | 93 | 1015.6 |
| 20260508083219 | 61 | 163 | 1.7 | 1.7 | 0.00 | 0.01 | 0.01 | 93 | 1016.2 |
| 20260508082713 | 61 | 195 | 0.0 | 0.0 | 0.00 | 0.01 | 0.01 | 92 | 1016.5 |
| 20260508082212 | 61 | 195 | 0.0 | 0.0 | 0.00 | 0.01 | 0.01 | 91 | 1016.7 |
| 20260508081709 | 61 | 195 | 0.0 | 0.0 | 0.00 | 0.01 | 0.01 | 90 | 1016.6 |
| 20260508081205 | 62 | 195 | 0.0 | 0.0 | 0.07 | 0.01 | 0.01 | 90 | 1016.7 |
| 20260508080702 | 62 | 222 | 0.0 | 0.0 | 0.07 | 0.01 | 0.01 | 88 | 1017.1 |
| 20260508080200 | 62 | 239 | 0.0 | 0.0 | 0.07 | 0.01 | 0.01 | 86 | 1017.2 |
| 20260508075656 | 62 | 240 | 0.9 | 0.9 | 0.00 | 0.00 | 0.00 | 85 | 1017.2 |
| 20260508075154 | 62 | 239 | 0.0 | 0.0 | 0.00 | 0.00 | 0.00 | 85 | 1017.2 |
| 20260508074651 | 62 | 244 | 0.0 | 0.0 | 0.00 | 0.00 | 0.00 | 85 | 1017.3 |
| 20260508074148 | 62 | 205 | 0.9 | 0.9 | 0.00 | 0.00 | 0.00 | 85 | 1017.0 |
| 20260508073645 | 62 | 189 | 0.0 | 0.0 | 0.00 | 0.00 | 0.00 | 85 | 1016.6 |
| 20260508073143 | 62 | 189 | 0.0 | 0.0 | 0.00 | 0.00 | 0.00 | 86 | 1016.5 |
| 20260508072638 | 62 | 189 | 0.0 | 0.0 | 0.00 | 0.00 | 0.00 | 86 | 1016.6 |
| 20260508072136 | 61 | 189 | 0.0 | 0.0 | 0.00 | 0.00 | 0.00 | 86 | 1016.8 |
| 20260508071633 | 61 | 189 | 0.0 | 0.0 | 0.00 | 0.00 | 0.00 | 87 | 1016.8 |
| 20260508071131 | 60 | 189 | 0.0 | 0.0 | 0.00 | 0.00 | 0.00 | 88 | 1016.7 |
| 20260508070629 | 60 | 189 | 0.0 | 0.0 | 0.00 | 0.00 | 0.00 | 88 | 1016.8 |
| 20260508070127 | 60 | 189 | 0.0 | 0.0 | 0.00 | 0.00 | 0.00 | 88 | 1016.9 |
| 20260508065624 | 60 | 188 | 0.0 | 0.0 | 0.00 | 0.00 | 0.00 | 88 | 1016.8 |
| 20260508065122 | 60 | 188 | 0.0 | 0.0 | 0.00 | 0.00 | 0.00 | 88 | 1016.8 |
| 20260508064619 | 60 | 189 | 0.0 | 0.0 | 0.00 | 0.00 | 0.00 | 88 | 1017.2 |
| 20260508064117 | 60 | 189 | 0.0 | 0.0 | 0.00 | 0.00 | 0.00 | 88 | 1017.3 |
| 20260508063614 | 60 | 189 | 0.0 | 0.0 | 0.00 | 0.00 | 0.00 | 87 | 1017.4 |
| 20260508063112 | 60 | 189 | 0.0 | 0.0 | 0.00 | 0.00 | 0.00 | 88 | 1017.2 |
| 20260508062610 | 60 | 189 | 0.0 | 0.0 | 0.00 | 0.00 | 0.00 | 88 | 1017.4 |
| 20260508062106 | 60 | 189 | 0.0 | 0.0 | 0.00 | 0.00 | 0.00 | 88 | 1017.4 |
| 20260508061604 | 60 | 189 | 0.0 | 0.0 | 0.00 | 0.00 | 0.00 | 88 | 1017.2 |
| 20260508061101 | 60 | 189 | 0.0 | 0.0 | 0.00 | 0.00 | 0.00 | 88 | 1017.2 |
| 20260508060557 | 60 | 189 | 0.0 | 0.0 | 0.00 | 0.00 | 0.00 | 88 | 1017.3 |
| 20260508060055 | 60 | 189 | 0.0 | 0.0 | 0.00 | 0.00 | 0.00 | 88 | 1017.0 |
| 20260508055550 | 60 | 189 | 0.0 | 0.0 | 0.00 | 0.00 | 0.00 | 88 | 1017.2 |
| 20260508055047 | 60 | 189 | 0.0 | 0.0 | 0.00 | 0.00 | 0.00 | 88 | 1017.3 |
| 20260508054544 | 60 | 189 | 0.0 | 0.0 | 0.00 | 0.00 | 0.00 | 87 | 1017.2 |
| 20260508054041 | 60 | 189 | 0.0 | 0.0 | 0.00 | 0.00 | 0.00 | 87 | 1017.2 |
| 20260508053538 | 60 | 189 | 0.0 | 0.0 | 0.00 | 0.00 | 0.00 | 87 | 1017.3 |
| 20260508053036 | 60 | 189 | 0.0 | 0.0 | 0.00 | 0.00 | 0.00 | 86 | 1017.6 |
| 20260508052533 | 60 | 189 | 0.0 | 0.0 | 0.00 | 0.00 | 0.00 | 86 | 1017.4 |
| 20260508052030 | 60 | 189 | 0.0 | 0.0 | 0.00 | 0.00 | 0.00 | 86 | 1017.4 |
| 20260508051526 | 60 | 189 | 0.0 | 0.0 | 0.00 | 0.00 | 0.00 | 86 | 1017.4 |
| 20260508051021 | 60 | 189 | 0.0 | 0.0 | 0.00 | 0.00 | 0.00 | 86 | 1017.2 |
| 20260508050518 | 60 | 189 | 0.0 | 0.0 | 0.00 | 0.00 | 0.00 | 85 | 1017.0 |
| 20260508050015 | 60 | 189 | 0.0 | 0.0 | 0.00 | 0.00 | 0.00 | 86 | 1017.1 |
| 20260508045512 | 60 | 189 | 0.0 | 0.0 | 0.00 | 0.00 | 0.00 | 85 | 1017.4 |
| 20260508045009 | 60 | 189 | 0.0 | 0.0 | 0.00 | 0.00 | 0.00 | 85 | 1017.5 |
| 20260508044506 | 61 | 189 | 0.0 | 0.0 | 0.00 | 0.00 | 0.00 | 85 | 1017.3 |
| 20260508044002 | 61 | 189 | 0.0 | 0.0 | 0.00 | 0.00 | 0.00 | 84 | 1017.3 |
| 20260508043459 | 61 | 189 | 0.0 | 0.0 | 0.00 | 0.00 | 0.00 | 84 | 1017.1 |
| 20260508042955 | 61 | 189 | 0.0 | 0.0 | 0.00 | 0.00 | 0.00 | 83 | 1017.1 |
| 20260508042453 | 61 | 189 | 0.0 | 0.0 | 0.00 | 0.00 | 0.00 | 83 | 1017.0 |
| 20260508041950 | 61 | 189 | 0.0 | 0.0 | 0.00 | 0.00 | 0.00 | 82 | 1017.3 |
| 20260508041446 | 62 | 189 | 0.0 | 0.0 | 0.00 | 0.00 | 0.00 | 82 | 1017.3 |
| 20260508040943 | 62 | 189 | 0.0 | 0.0 | 0.00 | 0.00 | 0.00 | 81 | 1017.0 |
| 20260508040440 | 62 | 189 | 0.0 | 0.0 | 0.00 | 0.00 | 0.00 | 81 | 1017.1 |
| 20260508035938 | 62 | 189 | 0.0 | 0.0 | 0.00 | 0.00 | 0.00 | 80 | 1017.0 |
| 20260508035435 | 62 | 189 | 0.0 | 0.0 | 0.00 | 0.00 | 0.00 | 80 | 1017.1 |
| 20260508034931 | 63 | 189 | 0.0 | 0.0 | 0.00 | 0.00 | 0.00 | 80 | 1017.1 |
| 20260508034429 | 62 | 189 | 0.0 | 0.0 | 0.00 | 0.00 | 0.00 | 79 | 1017.1 |
| 20260508033925 | 62 | 189 | 0.0 | 0.0 | 0.00 | 0.00 | 0.00 | 78 | 1017.1 |
| 20260508033424 | 63 | 189 | 0.0 | 0.0 | 0.00 | 0.00 | 0.00 | 78 | 1016.9 |
| 20260508032921 | 63 | 189 | 0.0 | 0.0 | 0.00 | 0.00 | 0.00 | 77 | 1017.1 |
| 20260508032418 | 63 | 189 | 0.0 | 0.0 | 0.00 | 0.00 | 0.00 | 76 | 1017.1 |
| 20260508031915 | 63 | 189 | 0.0 | 0.0 | 0.00 | 0.00 | 0.00 | 77 | 1017.0 |
| 20260508031412 | 63 | 189 | 0.0 | 0.0 | 0.00 | 0.00 | 0.00 | 76 | 1017.2 |
| 20260508030908 | 63 | 189 | 0.0 | 0.0 | 0.00 | 0.00 | 0.00 | 76 | 1016.9 |
| 20260508030405 | 64 | 189 | 0.0 | 0.0 | 0.00 | 0.00 | 0.00 | 75 | 1016.9 |
| 20260508025902 | 64 | 189 | 0.0 | 0.0 | 0.00 | 0.00 | 0.00 | 74 | 1016.7 |
| 20260508025359 | 64 | 189 | 0.0 | 0.0 | 0.00 | 0.00 | 0.00 | 73 | 1016.8 |
| 20260508024856 | 64 | 189 | 0.0 | 0.0 | 0.00 | 0.00 | 0.00 | 73 | 1017.0 |
| 20260508024352 | 64 | 189 | 0.0 | 0.0 | 0.00 | 0.00 | 0.00 | 73 | 1016.9 |
| 20260508023849 | 65 | 189 | 0.0 | 0.0 | 0.00 | 0.00 | 0.00 | 72 | 1016.8 |
| 20260508023346 | 65 | 189 | 0.0 | 0.0 | 0.00 | 0.00 | 0.00 | 72 | 1017.1 |
| 20260508022843 | 65 | 189 | 0.0 | 0.0 | 0.00 | 0.00 | 0.00 | 72 | 1016.7 |
| 20260508022338 | 65 | 189 | 0.0 | 0.0 | 0.00 | 0.00 | 0.00 | 72 | 1016.8 |
| 20260508021836 | 65 | 189 | 0.0 | 0.0 | 0.00 | 0.00 | 0.00 | 72 | 1016.7 |
| 20260508021332 | 65 | 188 | 0.0 | 0.0 | 0.00 | 0.00 | 0.00 | 71 | 1016.6 |
| 20260508020828 | 66 | 188 | 0.0 | 0.0 | 0.00 | 0.00 | 0.00 | 71 | 1016.5 |
| 20260508020326 | 66 | 187 | 0.9 | 0.9 | 0.00 | 0.00 | 0.00 | 70 | 1016.5 |
| 20260508015823 | 66 | 177 | 0.9 | 0.9 | 0.00 | 0.00 | 0.00 | 71 | 1016.4 |
| 20260508015320 | 66 | 185 | 0.0 | 0.0 | 0.00 | 0.00 | 0.00 | 71 | 1016.5 |
| 20260508014817 | 66 | 188 | 0.0 | 0.0 | 0.00 | 0.00 | 0.00 | 71 | 1016.5 |
| 20260508014314 | 66 | 188 | 0.0 | 0.0 | 0.00 | 0.00 | 0.00 | 70 | 1016.5 |
| 20260508013809 | 66 | 187 | 0.0 | 0.0 | 0.00 | 0.00 | 0.00 | 69 | 1016.5 |
| 20260508013306 | 66 | 193 | 0.0 | 0.0 | 0.00 | 0.00 | 0.00 | 69 | 1016.7 |
| 20260508012803 | 67 | 197 | 0.0 | 0.9 | 0.00 | 0.00 | 0.00 | 69 | 1016.5 |
| 20260508012300 | 67 | 196 | 0.0 | 0.9 | 0.00 | 0.00 | 0.00 | 68 | 1016.3 |
| 20260508011758 | 67 | 195 | 0.0 | 0.9 | 0.00 | 0.00 | 0.00 | 68 | 1016.3 |
| 20260508011255 | 67 | 194 | 0.0 | 0.0 | 0.00 | 0.00 | 0.00 | 68 | 1016.2 |
| 20260508010752 | 67 | 196 | 0.0 | 0.0 | 0.00 | 0.00 | 0.00 | 67 | 1016.5 |
| 20260508010250 | 67 | 200 | 0.0 | 0.0 | 0.00 | 0.00 | 0.00 | 67 | 1016.6 |
| 20260508005747 | 67 | 196 | 0.9 | 1.7 | 0.00 | 0.00 | 0.00 | 66 | 1016.3 |
| 20260508005244 | 68 | 196 | 0.0 | 0.0 | 0.00 | 0.00 | 0.00 | 66 | 1016.6 |
| 20260508004739 | 68 | 184 | 0.9 | 0.9 | 0.00 | 0.00 | 0.00 | 65 | 1016.4 |
| 20260508004236 | 68 | 193 | 0.9 | 0.9 | 0.00 | 0.00 | 0.00 | 65 | 1016.4 |
| 20260508003732 | 68 | 174 | 2.6 | 2.6 | 0.00 | 0.00 | 0.00 | 65 | 1016.7 |
| 20260508003230 | 68 | 195 | 0.9 | 0.9 | 0.00 | 0.00 | 0.00 | 65 | 1016.3 |
| 20260508002726 | 68 | 197 | 0.9 | 0.9 | 0.00 | 0.00 | 0.00 | 64 | 1016.5 |
| 20260508002224 | 68 | 186 | 0.0 | 0.9 | 0.00 | 0.00 | 0.00 | 64 | 1016.5 |
| 20260508001719 | 68 | 194 | 0.0 | 0.0 | 0.00 | 0.00 | 0.00 | 64 | 1016.4 |
| 20260508001215 | 68 | 133 | 0.9 | 1.7 | 0.00 | 0.00 | 0.00 | 64 | 1016.7 |
| 20260508000711 | 68 | 192 | 0.9 | 2.6 | 0.00 | 0.00 | 0.00 | 64 | 1016.5 |
| 20260508000211 | 69 | 180 | 3.5 | 4.3 | 0.00 | 0.00 | 0.00 | 64 | 1016.6 |
| 20260507235705 | 69 | 193 | 2.6 | 2.6 | 0.00 | 0.00 | 0.00 | 64 | 1016.4 |
| 20260507235203 | 69 | 197 | 1.7 | 1.7 | 0.00 | 0.00 | 0.00 | 64 | 1016.4 |
| 20260507234659 | 69 | 179 | 0.9 | 1.7 | 0.00 | 0.00 | 0.00 | 64 | 1016.6 |
| 20260507234156 | 69 | 192 | 2.6 | 4.3 | 0.00 | 0.00 | 0.00 | 64 | 1016.4 |
| 20260507233653 | 69 | 181 | 0.9 | 0.9 | 0.00 | 0.00 | 0.00 | 64 | 1016.4 |
| 20260507233151 | 69 | 185 | 0.9 | 1.7 | 0.00 | 0.00 | 0.00 | 63 | 1016.5 |
| 20260507232648 | 70 | 196 | 1.7 | 4.3 | 0.00 | 0.00 | 0.00 | 63 | 1016.4 |
| 20260507232145 | 70 | 205 | 1.7 | 1.7 | 0.00 | 0.00 | 0.00 | 62 | 1016.4 |
| 20260507231641 | 70 | 189 | 1.7 | 1.7 | 0.00 | 0.00 | 0.00 | 62 | 1016.6 |
| 20260507231138 | 70 | 181 | 2.6 | 2.6 | 0.00 | 0.00 | 0.00 | 62 | 1016.7 |
| 20260507230635 | 70 | 216 | 2.6 | 4.3 | 0.00 | 0.00 | 0.00 | 62 | 1016.4 |
| 20260507230132 | 71 | 180 | 1.7 | 1.7 | 0.00 | 0.00 | 0.00 | 61 | 1016.4 |
| 20260507225632 | 72 | 186 | 0.9 | 0.9 | 0.00 | 0.00 | 0.00 | 59 | 1016.4 |
| 20260507225129 | 73 | 166 | 1.7 | 2.6 | 0.00 | 0.00 | 0.00 | 55 | 1016.4 |
| 20260507224624 | 72 | 164 | 0.0 | 0.9 | 0.00 | 0.00 | 0.00 | 53 | 1016.5 |
| 20260507224121 | 73 | 149 | 0.0 | 0.0 | 0.00 | 0.00 | 0.00 | 53 | 1016.5 |
| 20260507223617 | 73 | 158 | 0.0 | 0.0 | 0.00 | 0.00 | 0.00 | 53 | 1016.5 |
| 20260507223114 | 73 | 139 | 0.0 | 0.9 | 0.00 | 0.00 | 0.00 | 53 | 1016.5 |
| 20260507222611 | 73 | 197 | 1.7 | 2.6 | 0.00 | 0.00 | 0.00 | 51 | 1016.5 |
| 20260507222108 | 73 | 160 | 0.0 | 0.0 | 0.00 | 0.00 | 0.00 | 52 | 1016.6 |
| 20260507221604 | 73 | 146 | 0.0 | 0.9 | 0.00 | 0.00 | 0.00 | 52 | 1016.4 |
| 20260507221101 | 72 | 87 | 0.9 | 0.9 | 0.00 | 0.00 | 0.00 | 52 | 1016.7 |
| 20260507220558 | 73 | 126 | 0.0 | 0.9 | 0.00 | 0.00 | 0.00 | 52 | 1016.8 |
| 20260507220055 | 73 | 167 | 0.0 | 0.0 | 0.00 | 0.00 | 0.00 | 52 | 1016.8 |
| 20260507215551 | 74 | 120 | 0.9 | 0.9 | 0.00 | 0.00 | 0.00 | 52 | 1016.7 |
| 20260507215050 | 73 | 83 | 0.9 | 1.7 | 0.00 | 0.00 | 0.00 | 52 | 1016.6 |
| 20260507214546 | 73 | 130 | 0.0 | 0.9 | 0.00 | 0.00 | 0.00 | 53 | 1016.9 |
| 20260507214042 | 73 | 94 | 0.9 | 0.9 | 0.00 | 0.00 | 0.00 | 51 | 1017.1 |
| 20260507213539 | 73 | 136 | 0.9 | 1.7 | 0.00 | 0.00 | 0.00 | 51 | 1016.8 |
| 20260507213036 | 74 | 85 | 0.0 | 0.9 | 0.00 | 0.00 | 0.00 | 51 | 1017.2 |
| 20260507212532 | 74 | 129 | 0.9 | 1.7 | 0.00 | 0.00 | 0.00 | 51 | 1017.1 |
| 20260507212029 | 73 | 109 | 0.0 | 0.9 | 0.00 | 0.00 | 0.00 | 53 | 1017.1 |
| 20260507211526 | 73 | 67 | 0.9 | 0.9 | 0.00 | 0.00 | 0.00 | 53 | 1017.0 |
| 20260507211022 | 73 | 156 | 0.0 | 0.9 | 0.00 | 0.00 | 0.00 | 54 | 1017.2 |
| 20260507210519 | 73 | 109 | 0.0 | 0.9 | 0.00 | 0.00 | 0.00 | 54 | 1017.2 |
| 20260507210016 | 73 | 168 | 0.0 | 0.0 | 0.00 | 0.00 | 0.00 | 54 | 1017.5 |
| 20260507205512 | 74 | 60 | 0.9 | 0.9 | 0.00 | 0.00 | 0.00 | 53 | 1017.0 |
| 20260507205009 | 73 | 205 | 0.0 | 0.0 | 0.00 | 0.00 | 0.00 | 53 | 1017.3 |
| 20260507204505 | 74 | 132 | 1.7 | 2.6 | 0.00 | 0.00 | 0.00 | 53 | 1017.1 |
| 20260507204003 | 74 | 159 | 0.0 | 0.0 | 0.00 | 0.00 | 0.00 | 53 | 1017.1 |
| 20260507203501 | 74 | 107 | 0.0 | 0.9 | 0.00 | 0.00 | 0.00 | 54 | 1017.2 |
| 20260507202957 | 74 | 131 | 1.7 | 1.7 | 0.00 | 0.00 | 0.00 | 51 | 1017.2 |
| 20260507202453 | 73 | 111 | 0.9 | 0.9 | 0.00 | 0.00 | 0.00 | 53 | 1017.5 |
| 20260507201949 | 73 | 63 | 0.9 | 0.9 | 0.00 | 0.00 | 0.00 | 53 | 1017.6 |
| 20260507201449 | 75 | 92 | 0.9 | 1.7 | 0.00 | 0.00 | 0.00 | 53 | 1017.5 |
| 20260507200947 | 74 | 85 | 0.9 | 0.9 | 0.00 | 0.00 | 0.00 | 53 | 1017.8 |
| 20260507200442 | 74 | 146 | 1.7 | 1.7 | 0.00 | 0.00 | 0.00 | 54 | 1017.8 |
| 20260507195938 | 75 | 164 | 1.7 | 1.7 | 0.00 | 0.00 | 0.00 | 52 | 1017.9 |
| 20260507195436 | 74 | 152 | 1.7 | 1.7 | 0.00 | 0.00 | 0.00 | 53 | 1017.7 |
| 20260507194933 | 75 | 96 | 0.0 | 0.0 | 0.00 | 0.00 | 0.00 | 53 | 1017.9 |
| 20260507194430 | 74 | 246 | 0.0 | 0.0 | 0.00 | 0.00 | 0.00 | 50 | 1018.1 |
| 20260507193926 | 75 | 155 | 0.9 | 0.9 | 0.00 | 0.00 | 0.00 | 50 | 1018.3 |
| 20260507193423 | 75 | 309 | 2.6 | 2.6 | 0.00 | 0.00 | 0.00 | 50 | 1018.1 |
| 20260507192920 | 74 | 104 | 0.9 | 1.7 | 0.00 | 0.00 | 0.00 | 51 | 1018.1 |